Weather History for Anoka County, MN

Change the Weather History Date:

Friday, November 23, 2012

  Actual Average Record
Temperature  
Mean Temperature 20 °F -  
Max Temperature 26 °F 35 °F 53 °F (2001)
Min Temperature 14 °F 21 °F 3 °F (1997)
Degree Days  
Heating Degree Days 45    
Moisture  
Dew Point 16 °F    
Average Humidity 81    
Maximum Humidity 93    
Minimum Humidity 64    
Precipitation  
Precipitation 0.00 in - - ()
Sea Level Pressure  
Sea Level Pressure 30.18 in    
Wind  
Wind Speed 19 mph (WNW)    
Max Wind Speed 25 mph    
Max Gust Speed 36 mph    
Visibility 8 miles    
Events Snow    
Averages and records for this station are not official NWS values.
T = Trace of Precipitation, MM = Missing Value Source: NWS Daily Summary

Daily Weather History Graph

Daily Weather History Graph

Search for Another Location

Airport:

Trip Planner

Search our weather history database for the weather conditions in past years. The results will help you decide how hot, cold, wet, or windy it might be!

Date:

Astronomy

Nov. 23, 2012 Rise Set
Actual Time 7:22 AM CST 4:36 PM CST
Civil Twilight 6:49 AM CST 5:08 PM CST
Nautical Twilight 6:13 AM CST 5:45 PM CST
Astronomical Twilight 5:38 AM CST 6:20 PM CST
Moon 2:00 PM CST (11/23) 2:30 AM CST (11/23)
Length of Visible Light 10h 19m
Length of Day
9h 14m
Waxing Gibbous, 80% of the Moon is Illuminated
Nov 23
Waxing Gibbous
Nov 28
Full
Dec 6
Last Quarter
Dec 13
New
Dec 19
First Quarter

Hourly Weather History & Observations

Time (CST) Temp. Windchill Dew Point Humidity Pressure Visibility Wind Dir Wind Speed Gust Speed Precip Events Conditions
12:14 AM 24.8 °F 11.1 °F 19.4 °F 80% 29.96 in 7.0 mi West 18.4 mph 28.8 mph N/A   Overcast
12:54 AM 24.8 °F 9.6 °F 19.4 °F 80% 29.97 in 5.0 mi West 23.0 mph 34.5 mph N/A   Haze
1:34 AM 24.8 °F 9.6 °F 19.4 °F 80% 29.98 in 7.0 mi West 23.0 mph 28.8 mph N/A   Overcast
1:54 AM 23.0 °F 6.6 °F 19.4 °F 86% 30.00 in 5.0 mi West 25.3 mph 32.2 mph N/A Snow Light Snow
2:13 AM 23.0 °F 8.3 °F 19.4 °F 86% 30.01 in 2.5 mi WNW 19.6 mph 31.1 mph N/A Snow Light Snow
2:34 AM 21.2 °F 4.9 °F 17.6 °F 86% 30.02 in 2.5 mi West 23.0 mph 34.5 mph N/A Snow Light Snow
2:54 AM 21.2 °F 4.5 °F 19.4 °F 93% 30.03 in 1.8 mi WNW 24.2 mph 35.7 mph N/A Snow Light Snow
3:14 AM 21.2 °F 4.9 °F 19.4 °F 93% 30.04 in 2.0 mi WNW 23.0 mph 31.1 mph N/A Snow Light Snow
3:34 AM 21.2 °F 4.2 °F 17.6 °F 86% 30.04 in 2.0 mi WNW 25.3 mph 34.5 mph N/A Snow Light Snow
3:54 AM 21.2 °F 5.2 °F 17.6 °F 86% 30.05 in 1.8 mi WNW 21.9 mph 28.8 mph N/A Snow Light Snow
4:14 AM 19.4 °F 3.6 °F 17.6 °F 93% 30.06 in 2.0 mi West 19.6 mph 33.4 mph N/A Snow Light Snow
4:34 AM 19.4 °F 2.8 °F 15.8 °F 86% 30.08 in 4.0 mi WNW 21.9 mph 28.8 mph N/A Snow Light Snow
4:54 AM 19.4 °F 3.2 °F 15.8 °F 86% 30.08 in 7.0 mi WNW 20.7 mph 28.8 mph N/A   Overcast
5:14 AM 19.4 °F 2.8 °F 15.8 °F 86% 30.09 in 5.0 mi WNW 21.9 mph 28.8 mph N/A Snow Light Snow
5:34 AM 19.4 °F 2.8 °F 15.8 °F 86% 30.11 in 4.0 mi WNW 21.9 mph 31.1 mph N/A Snow Light Snow
6:14 AM 19.4 °F 4.5 °F 15.8 °F 86% 30.13 in 10.0 mi WNW 17.3 mph 26.5 mph N/A Snow Light Snow
6:34 AM 19.4 °F 2.8 °F 14.0 °F 80% 30.14 in 10.0 mi WNW 21.9 mph 27.6 mph N/A   Overcast
6:50 AM 19.4 °F 2.8 °F 15.8 °F 86% 30.15 in 10.0 mi WNW 21.9 mph 27.6 mph N/A   Overcast
6:54 AM 19.4 °F 4.1 °F 15.8 °F 86% 30.15 in 10.0 mi WNW 18.4 mph 26.5 mph N/A Snow Light Snow
7:50 AM 19.4 °F 5.0 °F 15.8 °F 86% 30.18 in 10.0 mi WNW 16.1 mph 26.5 mph N/A   Overcast
9:45 AM 21.2 °F 6.8 °F 17.6 °F 86% 30.24 in 10.0 mi WNW 17.3 mph 27.6 mph N/A   Overcast
10:45 AM 23.0 °F 8.3 °F 17.6 °F 80% 30.27 in 10.0 mi WNW 19.6 mph 27.6 mph N/A   Overcast
11:55 AM 24.8 °F 11.1 °F 17.6 °F 74% 30.28 in 10.0 mi WNW 18.4 mph - N/A   Overcast
12:45 PM 24.8 °F 11.5 °F 17.6 °F 74% 30.28 in 10.0 mi WNW 17.3 mph 24.2 mph N/A   Overcast
1:55 PM 26.6 °F 15.2 °F 17.6 °F 69% 30.29 in 10.0 mi NW 13.8 mph 20.7 mph N/A   Overcast
2:45 PM 26.6 °F 13.1 °F 15.8 °F 64% 30.29 in 10.0 mi NW 19.6 mph - N/A   Mostly Cloudy
3:45 PM 26.6 °F 15.2 °F 17.6 °F 69% 30.32 in 10.0 mi NW 13.8 mph - N/A   Mostly Cloudy
4:45 PM 26.6 °F 15.2 °F 17.6 °F 69% 30.32 in 10.0 mi WNW 13.8 mph - N/A   Overcast
6:45 PM 24.8 °F 12.9 °F 15.8 °F 69% 30.35 in 10.0 mi WNW 13.8 mph - N/A   Overcast
9:13 PM 19.4 °F 6.6 °F 12.2 °F 74% 30.35 in 10.0 mi WNW 12.7 mph - N/A   Overcast
9:34 PM 17.6 °F 5.7 °F 12.2 °F 79% 30.35 in 10.0 mi WNW 10.4 mph - N/A   Mostly Cloudy
9:54 PM 17.6 °F 5.0 °F 12.2 °F 79% 30.35 in 10.0 mi NW 11.5 mph - N/A   Scattered Clouds
10:13 PM 17.6 °F 6.4 °F 12.2 °F 79% 30.35 in 10.0 mi NW 9.2 mph - N/A   Clear
10:34 PM 15.8 °F 4.2 °F 10.4 °F 79% 30.34 in 10.0 mi NW 9.2 mph - N/A   Clear
10:54 PM 15.8 °F 7.2 °F 10.4 °F 79% 30.34 in 10.0 mi NW 5.8 mph - N/A   Clear
11:13 PM 15.8 °F 7.2 °F 10.4 °F 79% 30.34 in 10.0 mi WNW 5.8 mph - N/A   Clear
11:34 PM 14.0 °F 3.9 °F 10.4 °F 86% 30.34 in 10.0 mi WNW 6.9 mph - N/A   Clear
11:54 PM 14.0 °F 5.1 °F 10.4 °F 86% 30.34 in 10.0 mi WNW 5.8 mph - N/A   Clear